,,Stat1,,Stat2,,Stat3,,Stat4,,Wind1,,Wind1,
time,status,PR1M_SUM,status,RH1M_AVG,status,SR1M_AVG,status,TA1M_AVG,status,W1dAve1m,status,W1sAve1m,
2000-03-13, 00:01:00,VALID,0,VALID,96.0087,VALID,0.0679233,VALID,20.0473,VALID,93,VALID,1.21191,
2000-03-13, 00:02:00,VALID,0,VALID,95.9197,VALID,0.0679233,VALID,20.0465,VALID,85,VALID,1.15505,
2000-03-13, 00:03:00,VALID,0,VALID,95.7607,VALID,0.118866,VALID,20.0664,VALID,82,VALID,0.622196,
2000-03-13, 00:04:00,VALID,0,VALID,95.715,VALID,0.0849042,VALID,20.0927,VALID,96,VALID,0.933594,
2000-03-13, 00:05:00,VALID,0,VALID,95.6882,VALID,0.101885,VALID,20.0922,VALID,90,VALID,1.01035,
2000-03-13, 00:06:00,VALID,0,VALID,95.6768,VALID,0.101885,VALID,20.0954,VALID,101,VALID,0.836328,
2000-03-13, 00:07:00,VALID,0,VALID,95.6743,VALID,0.101885,VALID,20.0852,VALID,117,VALID,0.687089,
2000-03-13, 00:08:01,VALID,0,VALID,95.6488,VALID,0.0849042,VALID,20.0756,VALID,97,VALID,1.37138,
2000-03-13, 00:09:00,VALID,0,VALID,95.5878,VALID,0.0849042,VALID,20.0664,VALID,100,VALID,1.24866,
2000-03-13, 00:10:00,VALID,0,VALID,95.5967,VALID,0.101885,VALID,20.0594,VALID,84,VALID,0.982572,
2000-03-13, 00:11:00,VALID,0,VALID,95.6107,VALID,0.0849042,VALID,20.0433,VALID,123,VALID,0.65076,
2000-03-13, 00:12:00,VALID,0,VALID,95.6158,VALID,0.101885,VALID,20.0599,VALID,152,VALID,0.0921053,
2000-03-13, 00:13:00,VALID,0,VALID,95.617,VALID,0.0849042,VALID,20.0564,VALID,137,VALID,0.594551,
2000-03-13, 00:14:00,VALID,0,VALID,95.584,VALID,0.101885,VALID,20.0502,VALID,87,VALID,0.440905,
2000-03-13, 00:15:00,VALID,0,VALID,95.6081,VALID,0.0679233,VALID,20.0376,VALID,96,VALID,0.579492,
2000-03-13, 00:16:00,VALID,0,VALID,95.6526,VALID,-0.0849042,VALID,20.0142,VALID,91,VALID,1.31102,
2000-03-13, 00:17:00,VALID,0,VALID,95.6793,VALID,-0.101885,VALID,20.0013,VALID,103,VALID,1.35041,
2000-03-13, 00:18:00,VALID,0,VALID,95.6743,VALID,-0.101885,VALID,19.9852,VALID,319,VALID,0.771484,
2000-03-13, 00:19:01,VALID,0,VALID,95.6882,VALID,-0.101885,VALID,19.982,VALID,204,VALID,0.0259046,
2000-03-13, 00:20:00,VALID,0,VALID,95.6793,VALID,-0.0849042,VALID,19.9688,VALID,118,VALID,0.730363,
2000-03-13, 00:21:00,VALID,0,VALID,95.6399,VALID,-0.0849042,VALID,19.9688,VALID,78,VALID,0.780828,
2000-03-13, 00:22:00,VALID,0,VALID,95.6247,VALID,-0.0509425,VALID,19.9591,VALID,92,VALID,1.13691,
2000-03-13, 00:23:00,VALID,0,VALID,95.5649,VALID,-0.0849042,VALID,19.9588,VALID,87,VALID,0.820929,
2000-03-13, 00:24:00,VALID,0,VALID,95.5039,VALID,-0.0849042,VALID,19.9755,VALID,94,VALID,1.2923,
2000-03-13, 00:25:00,VALID,0,VALID,95.4568,VALID,-0.101885,VALID,19.982,VALID,97,VALID,1.27031,
2000-03-13, 00:26:00,VALID,0,VALID,95.4454,VALID,-0.101885,VALID,19.9946,VALID,86,VALID,1.20893,
2000-03-13, 00:27:00,VALID,0,VALID,95.2203,VALID,-0.0849042,VALID,19.9946,VALID,79,VALID,0.929054,
2000-03-13, 00:28:00,VALID,0,VALID,95.2127,VALID,-0.0509425,VALID,19.9981,VALID,88,VALID,1.35938,
2000-03-13, 00:29:00,VALID,0,VALID,95.1809,VALID,-0.0339617,VALID,20.0207,VALID,50,VALID,0.804688,
2000-03-13, 00:30:01,VALID,0,VALID,95.0957,VALID,-0.0849042,VALID,20.0239,VALID,87,VALID,1.10317,
2000-03-13, 00:31:00,VALID,0,VALID,95.0728,VALID,-0.0679233,VALID,20.0341,VALID,102,VALID,0.913281,
2000-03-13, 00:32:00,VALID,0,VALID,95.0257,VALID,-0.0849042,VALID,20.0237,VALID,86,VALID,0.927998,
2000-03-13, 00:33:00,VALID,0,VALID,95.013,VALID,-0.0169808,VALID,20.0105,VALID,94,VALID,1.07169,
2000-03-13, 00:34:00,VALID,0,VALID,94.9138,VALID,-0.0509425,VALID,20.0011,VALID,82,VALID,1.16254,
2000-03-13, 00:35:00,VALID,0,VALID,94.91,VALID,-0.0169808,VALID,19.9844,VALID,114,VALID,0.441612,
2000-03-13, 00:36:00,VALID,0,VALID,94.9176,VALID,-0.0339617,VALID,19.9884,VALID,99,VALID,0.79603,
2000-03-13, 00:37:00,VALID,0,VALID,94.8884,VALID,-0.101885,VALID,19.9785,VALID,102,VALID,1.16005,
2000-03-13, 00:38:00,VALID,0,VALID,95.0041,VALID,-0.0849042,VALID,19.979,VALID,98,VALID,1.13906,
2000-03-13, 00:39:00,VALID,0,VALID,94.9736,VALID,-0.0679233,VALID,19.9472,VALID,86,VALID,1.10629,
2000-03-13, 00:40:00,VALID,0,VALID,94.6951,VALID,-0.0509425,VALID,19.9236,VALID,98,VALID,1.633,
2000-03-13, 00:41:01,VALID,0,VALID,94.5425,VALID,-0.0339617,VALID,19.9397,VALID,98,VALID,1.81451,
2000-03-13, 00:42:00,VALID,0,VALID,94.5616,VALID,-0.0849042,VALID,19.9492,VALID,95,VALID,2.0002,
2000-03-13, 00:43:00,VALID,0,VALID,94.3772,VALID,-0.0509425,VALID,19.9402,VALID,92,VALID,2.23395,
2000-03-13, 00:44:00,VALID,0,VALID,93.8648,VALID,-0.0679233,VALID,19.9335,VALID,82,VALID,1.37767,
2000-03-13, 00:45:00,VALID,0,VALID,93.2099,VALID,-0.0169808,VALID,19.9457,VALID,88,VALID,1.748,
2000-03-13, 00:46:00,VALID,0,VALID,93.0077,VALID,0.0339617,VALID,19.9802,VALID,92,VALID,1.92208,
2000-03-13, 00:47:00,VALID,0,VALID,93.0077,VALID,0.0169808,VALID,19.9839,VALID,84,VALID,1.16816,
2000-03-13, 00:48:00,VALID,0,VALID,93.0306,VALID,0.0679233,VALID,19.9998,VALID,95,VALID,1.27111,
2000-03-13, 00:49:00,VALID,0,VALID,93.1476,VALID,0.0169808,VALID,19.977,VALID,95,VALID,1.17578,
2000-03-13, 00:50:00,VALID,0,VALID,93.365,VALID,0.101885,VALID,19.9317,VALID,95,VALID,1.61784,
2000-03-13, 00:51:00,VALID,0,VALID,93.4235,VALID,0.0509425,VALID,19.9156,VALID,88,VALID,1.61616,
2000-03-13, 00:52:01,VALID,0,VALID,93.407,VALID,0.0339617,VALID,19.9159,VALID,95,VALID,0.919341,
2000-03-13, 00:53:00,VALID,0,VALID,93.4451,VALID,0.0509425,VALID,19.9191,VALID,95,VALID,1.36339,
2000-03-13, 00:54:00,VALID,0,VALID,93.5062,VALID,0.0679233,VALID,19.9029,VALID,94,VALID,0.772656,
2000-03-13, 00:55:00,VALID,0,VALID,93.6219,VALID,0.0339617,VALID,19.8833,VALID,116,VALID,0.115132,
2000-03-13, 00:56:00,VALID,0,VALID,93.791,VALID,0.0509425,VALID,19.8674,VALID,103,VALID,0.671875,
2000-03-13, 00:57:00,VALID,0,VALID,93.8533,VALID,0.0509425,VALID,19.8354,VALID,56,VALID,1.2125,
2000-03-13, 00:58:00,VALID,0,VALID,93.7681,VALID,0.0339617,VALID,19.816,VALID,66,VALID,0.760817,
2000-03-13, 00:59:00,VALID,0,VALID,93.8126,VALID,0.0169808,VALID,19.8222,VALID,77,VALID,1.47424,
2000-03-13, 01:00:00,VALID,0,VALID,94.0301,VALID,0.0339617,VALID,19.8028,VALID,72,VALID,0.586965,
2000-03-13, 01:01:00,VALID,0,VALID,94.0949,VALID,-0.0509425,VALID,19.7748,VALID,86,VALID,1.23377,
2000-03-13, 01:02:01,VALID,0,VALID,94.1725,VALID,-0.0679233,VALID,19.7492,VALID,89,VALID,1.34635,
2000-03-13, 01:03:00,VALID,0,VALID,94.1712,VALID,-0.0339617,VALID,19.7397,VALID,98,VALID,1.6248,
2000-03-13, 01:04:00,VALID,0,VALID,94.0288,VALID,-0.0509425,VALID,19.7136,VALID,88,VALID,1.73374,
2000-03-13, 01:05:00,VALID,0,VALID,93.9843,VALID,-0.0849042,VALID,19.7045,VALID,92,VALID,1.82583,
2000-03-13, 01:06:00,VALID,0,VALID,93.7847,VALID,-0.0849042,VALID,19.6851,VALID,94,VALID,1.66493,
2000-03-13, 01:07:00,VALID,0,VALID,93.8126,VALID,-0.0339617,VALID,19.6888,VALID,100,VALID,1.13425,
2000-03-13, 01:08:00,VALID,0,VALID,93.7605,VALID,-0.101885,VALID,19.6528,VALID,87,VALID,1.92209,
2000-03-13, 01:09:00,VALID,0,VALID,93.4464,VALID,-0.0679233,VALID,19.6625,VALID,91,VALID,1.80384,
2000-03-13, 01:10:00,VALID,0,VALID,93.5265,VALID,-0.0849042,VALID,19.6657,VALID,95,VALID,2.09531,
2000-03-13, 01:11:00,VALID,0,VALID,93.5965,VALID,-0.0679233,VALID,19.6523,VALID,91,VALID,2.20765,
2000-03-13, 01:12:00,VALID,0,VALID,93.6244,VALID,-0.0679233,VALID,19.6232,VALID,98,VALID,2.26563,
2000-03-13, 01:13:00,VALID,0,VALID,93.6117,VALID,-0.0679233,VALID,19.6009,VALID,93,VALID,1.77522,
2000-03-13, 01:14:00,VALID,0,VALID,93.4451,VALID,0.0339617,VALID,19.5706,VALID,93,VALID,2.13822,
2000-03-13, 01:15:00,VALID,0,VALID,93.3027,VALID,0.0169808,VALID,19.5939,VALID,91,VALID,1.67399,
2000-03-13, 01:16:00,VALID,0,VALID,93.2976,VALID,0,VALID,19.5934,VALID,104,VALID,2.01316,
2000-03-13, 01:17:00,VALID,0,VALID,93.2582,VALID,0.0339617,VALID,19.5969,VALID,96,VALID,1.96815,
2000-03-13, 01:18:00,VALID,0,VALID,93.2468,VALID,0.0339617,VALID,19.5904,VALID,90,VALID,1.85998,
2000-03-13, 01:19:00,VALID,0,VALID,93.2595,VALID,0.0169808,VALID,19.6001,VALID,94,VALID,1.61465,
2000-03-13, 01:20:00,VALID,0,VALID,93.234,VALID,0,VALID,19.6004,VALID,88,VALID,1.04709,
2000-03-13, 01:21:00,VALID,0,VALID,93.379,VALID,0.0339617,VALID,19.5999,VALID,76,VALID,2.04113,
2000-03-13, 01:22:00,VALID,0,VALID,93.571,VALID,0.0339617,VALID,19.6235,VALID,84,VALID,1.61372,
2000-03-13, 01:23:00,VALID,0,VALID,93.7122,VALID,0.0339617,VALID,19.626,VALID,85,VALID,2.10814,
2000-03-13, 01:24:00,VALID,0,VALID,93.6499,VALID,0.0169808,VALID,19.619,VALID,86,VALID,2.22107,
2000-03-13, 01:25:00,VALID,0,VALID,93.6524,VALID,0.0169808,VALID,19.6322,VALID,94,VALID,1.61613,
2000-03-13, 01:26:00,VALID,0,VALID,93.6944,VALID,0.0169808,VALID,19.6093,VALID,97,VALID,2.30039,
2000-03-13, 01:27:00,VALID,0,VALID,93.6448,VALID,0.0339617,VALID,19.5964,VALID,96,VALID,2.14268,
2000-03-13, 01:28:00,VALID,0,VALID,93.6588,VALID,0,VALID,19.581,VALID,94,VALID,1.98698,
2000-03-13, 01:29:00,VALID,0,VALID,93.7262,VALID,0.0339617,VALID,19.5651,VALID,95,VALID,1.7317,
2000-03-13, 01:30:00,VALID,0,VALID,93.7173,VALID,0.0339617,VALID,19.5355,VALID,94,VALID,1.87981,
2000-03-13, 01:31:00,VALID,0,VALID,93.9055,VALID,0.0169808,VALID,19.5326,VALID,90,VALID,2.82707,
2000-03-13, 01:32:00,VALID,0,VALID,93.8775,VALID,0,VALID,19.5485,VALID,86,VALID,2.93298,
2000-03-13, 01:33:00,VALID,0,VALID,94.0161,VALID,0.0339617,VALID,19.5681,VALID,77,VALID,2.36298,
2000-03-13, 01:34:01,VALID,0,VALID,93.7885,VALID,0.0169808,VALID,19.5586,VALID,78,VALID,2.54948,
2000-03-13, 01:35:00,VALID,0,VALID,93.7084,VALID,0.0169808,VALID,19.5748,VALID,96,VALID,2.10645,
2000-03-13, 01:36:00,VALID,0,VALID,93.5532,VALID,0,VALID,19.5455,VALID,87,VALID,1.54012,
2000-03-13, 01:37:00,VALID,0,VALID,93.5494,VALID,0.0169808,VALID,19.5326,VALID,95,VALID,1.95519,
2000-03-13, 01:38:00,VALID,0,VALID,93.7007,VALID,0.0169808,VALID,19.5104,VALID,95,VALID,1.62153,
2000-03-13, 01:39:00,VALID,0,VALID,93.8495,VALID,0.0169808,VALID,19.4774,VALID,96,VALID,1.92763,
2000-03-13, 01:40:00,VALID,0,VALID,94.0339,VALID,0.0169808,VALID,19.4585,VALID,83,VALID,2.26563,
2000-03-13, 01:41:00,VALID,0,VALID,93.9805,VALID,0.0679233,VALID,19.4645,VALID,86,VALID,2.50169,
2000-03-13, 01:42:00,VALID,0,VALID,93.8266,VALID,0.0509425,VALID,19.4742,VALID,94,VALID,2.51699,
2000-03-13, 01:43:00,VALID,0,VALID,93.7592,VALID,0.0509425,VALID,19.5005,VALID,89,VALID,2.25699,
2000-03-13, 01:44:00,VALID,0,VALID,93.749,VALID,0.0339617,VALID,19.5067,VALID,92,VALID,2.05526,
2000-03-13, 01:45:00,VALID,0,VALID,93.9283,VALID,0,VALID,19.4712,VALID,95,VALID,1.7442,
2000-03-13, 01:46:00,VALID,0,VALID,94.1674,VALID,0.0849042,VALID,19.4613,VALID,98,VALID,1.51723,
2000-03-13, 01:47:00,VALID,0,VALID,94.3022,VALID,0,VALID,19.4456,VALID,99,VALID,1.36571,
2000-03-13, 01:48:00,VALID,0,VALID,94.395,VALID,0,VALID,19.4262,VALID,82,VALID,1.17044,
2000-03-13, 01:49:00,VALID,0,VALID,94.8363,VALID,0,VALID,19.4168,VALID,93,VALID,1.98498,
2000-03-13, 01:50:00,VALID,0,VALID,95.0588,VALID,0,VALID,19.3937,VALID,90,VALID,1.85877,
2000-03-13, 01:51:00,VALID,0,VALID,95.1275,VALID,0.0169808,VALID,19.3783,VALID,96,VALID,1.96621,
2000-03-13, 01:52:00,VALID,0,VALID,95.2165,VALID,0,VALID,19.3584,VALID,95,VALID,1.95291,
2000-03-13, 01:53:00,VALID,0,VALID,95.3169,VALID,0.0339617,VALID,19.3584,VALID,97,VALID,1.9329,
2000-03-13, 01:54:00,VALID,0,VALID,95.4238,VALID,0.0169808,VALID,19.3547,VALID,99,VALID,1.5306,
2000-03-13, 01:55:00,VALID,0,VALID,95.4225,VALID,0.0339617,VALID,19.3619,VALID,91,VALID,1.90502,
2000-03-13, 01:56:00,VALID,0,VALID,95.3042,VALID,0.0169808,VALID,19.3423,VALID,97,VALID,1.67652,
2000-03-13, 01:57:00,VALID,0,VALID,95.4098,VALID,0,VALID,19.3455,VALID,73,VALID,1.44595,
2000-03-13, 01:58:00,VALID,0,VALID,95.3195,VALID,0.0169808,VALID,19.3423,VALID,100,VALID,1.3832,
2000-03-13, 01:59:00,VALID,0,VALID,95.2572,VALID,0,VALID,19.3105,VALID,96,VALID,1.60424,
2000-03-13, 02:00:00,VALID,0,VALID,95.5395,VALID,0,VALID,19.2842,VALID,87,VALID,1.70732,
2000-03-13, 02:01:00,VALID,0,VALID,95.556,VALID,-0.0849042,VALID,19.2824,VALID,101,VALID,1.37411,
2000-03-13, 02:02:00,VALID,0,VALID,95.5039,VALID,-0.0679233,VALID,19.2792,VALID,97,VALID,1.13542,
2000-03-13, 02:03:00,VALID,0,VALID,95.5535,VALID,-0.0679233,VALID,19.2496,VALID,87,VALID,1.04075,
2000-03-13, 02:04:00,VALID,0,VALID,95.5992,VALID,-0.0679233,VALID,19.2337,VALID,96,VALID,1.4558,
2000-03-13, 02:05:00,VALID,0,VALID,95.6984,VALID,-0.0849042,VALID,19.2178,VALID,100,VALID,1.34615,
2000-03-13, 02:06:00,VALID,0,VALID,95.865,VALID,-0.0679233,VALID,19.2019,VALID,96,VALID,1.3768,
2000-03-13, 02:07:00,VALID,0,VALID,95.9413,VALID,-0.0849042,VALID,19.1887,VALID,93,VALID,1.21914,
2000-03-13, 02:08:00,VALID,0,VALID,95.9362,VALID,-0.0679233,VALID,19.1728,VALID,92,VALID,1.34586,
2000-03-13, 02:09:00,VALID,0,VALID,95.9871,VALID,-0.0849042,VALID,19.1507,VALID,100,VALID,1.65074,
2000-03-13, 02:10:00,VALID,0,VALID,95.9871,VALID,-0.0509425,VALID,19.1274,VALID,95,VALID,1.60352,
2000-03-13, 02:11:00,VALID,0,VALID,96.0519,VALID,-0.0679233,VALID,19.1179,VALID,96,VALID,1.50267,
2000-03-13, 02:12:00,VALID,0,VALID,96.1015,VALID,-0.101885,VALID,19.1179,VALID,91,VALID,1.09903,
2000-03-13, 02:13:00,VALID,0,VALID,96.1448,VALID,-0.101885,VALID,19.1048,VALID,94,VALID,1.7538,
2000-03-13, 02:14:00,VALID,0,VALID,96.2249,VALID,-0.0849042,VALID,19.1209,VALID,90,VALID,1.72402,
2000-03-13, 02:15:00,VALID,0,VALID,96.1486,VALID,-0.0849042,VALID,19.1177,VALID,97,VALID,1.15317,
2000-03-13, 02:16:00,VALID,0,VALID,95.9922,VALID,-0.0849042,VALID,19.1147,VALID,91,VALID,1.67035,
2000-03-13, 02:17:00,VALID,0,VALID,95.8841,VALID,-0.0849042,VALID,19.0889,VALID,98,VALID,1.7067,
2000-03-13, 02:18:00,VALID,0,VALID,95.9464,VALID,-0.0509425,VALID,19.0856,VALID,92,VALID,1.7526,
2000-03-13, 02:19:00,VALID,0,VALID,96.0061,VALID,-0.101885,VALID,19.1122,VALID,87,VALID,1.54899,
2000-03-13, 02:20:00,VALID,0,VALID,95.9451,VALID,-0.0679233,VALID,19.1087,VALID,89,VALID,1.71731,
2000-03-13, 02:21:00,VALID,0,VALID,96.085,VALID,-0.0679233,VALID,19.1115,VALID,76,VALID,1.98698,
2000-03-13, 02:22:00,VALID,0,VALID,96.0036,VALID,-0.0849042,VALID,19.1505,VALID,88,VALID,1.92708,
2000-03-13, 02:23:00,VALID,0,VALID,95.9705,VALID,-0.0849042,VALID,19.1438,VALID,70,VALID,1.7041,
2000-03-13, 02:24:00,VALID,0,VALID,96.1638,VALID,-0.0679233,VALID,19.1507,VALID,93,VALID,1.63535,
2000-03-13, 02:25:00,VALID,0,VALID,96.2668,VALID,-0.0849042,VALID,19.1405,VALID,80,VALID,1.63419,
2000-03-13, 02:26:00,VALID,0,VALID,96.5402,VALID,-0.101885,VALID,19.1606,VALID,72,VALID,1.34332,
2000-03-13, 02:27:00,VALID,0,VALID,96.7386,VALID,-0.101885,VALID,19.1758,VALID,77,VALID,1.61225,
2000-03-13, 02:28:00,VALID,0,VALID,96.5428,VALID,-0.0509425,VALID,19.1696,VALID,80,VALID,1.12563,
2000-03-13, 02:29:00,VALID,0,VALID,96.5517,VALID,-0.0849042,VALID,19.1673,VALID,72,VALID,0.613176,
2000-03-13, 02:30:00,VALID,0,VALID,96.7805,VALID,-0.101885,VALID,19.1733,VALID,72,VALID,1.03867,
2000-03-13, 02:31:00,VALID,0,VALID,96.8581,VALID,0.0169808,VALID,19.1947,VALID,78,VALID,1.17146,
2000-03-13, 02:32:00,VALID,0,VALID,96.7767,VALID,0.0339617,VALID,19.1945,VALID,80,VALID,0.796303,
2000-03-13, 02:33:00,VALID,0,VALID,96.9217,VALID,0,VALID,19.2265,VALID,64,VALID,1.12612,
2000-03-13, 02:34:00,VALID,0,VALID,96.881,VALID,0.0169808,VALID,19.2427,VALID,69,VALID,0.966947,
2000-03-13, 02:35:00,VALID,0,VALID,96.8403,VALID,0.0339617,VALID,19.2558,VALID,76,VALID,0.738598,
2000-03-13, 02:36:00,VALID,0,VALID,96.8136,VALID,0.0169808,VALID,19.2712,VALID,92,VALID,0.783512,
2000-03-13, 02:37:00,VALID,0,VALID,96.7666,VALID,0.0169808,VALID,19.2874,VALID,91,VALID,0.158654,
2000-03-13, 02:38:00,VALID,0,VALID,96.7017,VALID,0.0169808,VALID,19.3169,VALID,49,VALID,0.681891,
2000-03-13, 02:39:00,VALID,0,VALID,96.5644,VALID,0,VALID,19.34,VALID,57,VALID,0.665039,
2000-03-13, 02:40:00,VALID,0,VALID,96.4423,VALID,0.0169808,VALID,19.3654,VALID,67,VALID,0.54772,
2000-03-13, 02:41:01,VALID,0,VALID,96.3228,VALID,0.0169808,VALID,19.3912,VALID,101,VALID,0.568934,
2000-03-13, 02:42:00,VALID,0,VALID,96.2287,VALID,0.0679233,VALID,19.4004,VALID,98,VALID,0.185981,
2000-03-13, 02:43:00,VALID,0,VALID,96.146,VALID,0.0509425,VALID,19.417,VALID,84,VALID,0.287829,
2000-03-13, 02:44:00,VALID,0,VALID,96.1282,VALID,0.0169808,VALID,19.4237,VALID,73,VALID,0.561655,
2000-03-13, 02:45:00,VALID,0,VALID,96.0125,VALID,0.0339617,VALID,19.4267,VALID,70,VALID,0.60853,
2000-03-13, 02:46:00,VALID,0,VALID,95.9031,VALID,0.0169808,VALID,19.4332,VALID,94,VALID,0.812891,
2000-03-13, 02:47:00,VALID,0,VALID,95.8281,VALID,0,VALID,19.4041,VALID,71,VALID,1.19428,
2000-03-13, 02:48:00,VALID,0,VALID,95.8396,VALID,0,VALID,19.3877,VALID,56,VALID,1.09165,
2000-03-13, 02:49:00,VALID,0,VALID,95.8675,VALID,0.0169808,VALID,19.3748,VALID,64,VALID,0.912723,
2000-03-13, 02:50:00,VALID,0,VALID,95.8764,VALID,0.0169808,VALID,19.3559,VALID,58,VALID,0.453526,
2000-03-13, 02:51:00,VALID,0,VALID,95.9578,VALID,0.0339617,VALID,19.3492,VALID,79,VALID,1.39358,
2000-03-13, 02:52:00,VALID,0,VALID,95.865,VALID,0.0169808,VALID,19.3619,VALID,69,VALID,1.50164,
2000-03-13, 02:53:00,VALID,0,VALID,95.7455,VALID,0.0339617,VALID,19.3686,VALID,80,VALID,1.38642,
2000-03-13, 02:54:00,VALID,0,VALID,95.7251,VALID,0.0169808,VALID,19.3716,VALID,79,VALID,1.50741,
2000-03-13, 02:55:00,VALID,0,VALID,95.6997,VALID,0,VALID,19.3748,VALID,74,VALID,1.3957,
2000-03-13, 02:56:00,VALID,0,VALID,95.6857,VALID,0,VALID,19.3751,VALID,63,VALID,1.00274,
2000-03-13, 02:57:00,VALID,0,VALID,95.6959,VALID,0,VALID,19.3783,VALID,54,VALID,0.98966,
2000-03-13, 02:58:00,VALID,0,VALID,95.5891,VALID,0.0339617,VALID,19.391,VALID,84,VALID,1.46571,
2000-03-13, 02:59:00,VALID,0,VALID,95.4492,VALID,0.0169808,VALID,19.4066,VALID,83,VALID,1.34951,
2000-03-13, 03:00:00,VALID,0,VALID,95.3869,VALID,0.0509425,VALID,19.4096,VALID,76,VALID,1.61296,
2000-03-13, 03:01:00,VALID,0,VALID,95.3055,VALID,-0.0679233,VALID,19.4242,VALID,94,VALID,1.49937,
2000-03-13, 03:02:00,VALID,0,VALID,95.2851,VALID,-0.0509425,VALID,19.421,VALID,86,VALID,1.17773,
2000-03-13, 03:03:01,VALID,0,VALID,95.2432,VALID,-0.101885,VALID,19.4309,VALID,84,VALID,1.17455,
2000-03-13, 03:04:00,VALID,0,VALID,95.2305,VALID,-0.0849042,VALID,19.4217,VALID,87,VALID,0.912538,
2000-03-13, 03:05:00,VALID,0,VALID,95.2241,VALID,-0.0679233,VALID,19.415,VALID,72,VALID,1.23996,
2000-03-13, 03:06:00,VALID,0,VALID,95.0855,VALID,-0.0679233,VALID,19.4143,VALID,79,VALID,1.61538,
2000-03-13, 03:07:00,VALID,0,VALID,95.0321,VALID,-0.0169808,VALID,19.4404,VALID,77,VALID,1.20861,
2000-03-13, 03:08:00,VALID,0,VALID,95.041,VALID,-0.0509425,VALID,19.4371,VALID,77,VALID,1.45477,
2000-03-13, 03:09:00,VALID,0,VALID,95.055,VALID,-0.0339617,VALID,19.4108,VALID,76,VALID,1.21254,
2000-03-13, 03:10:00,VALID,0,VALID,95.1236,VALID,-0.0339617,VALID,19.4212,VALID,85,VALID,1.19451,
2000-03-13, 03:11:00,VALID,0,VALID,95.1402,VALID,-0.0509425,VALID,19.4143,VALID,83,VALID,1.33906,
2000-03-13, 03:12:00,VALID,0,VALID,95.1326,VALID,-0.0509425,VALID,19.4245,VALID,77,VALID,1.51731,
2000-03-13, 03:13:01,VALID,0,VALID,95.0995,VALID,-0.0509425,VALID,19.4272,VALID,68,VALID,1.3619,
2000-03-13, 03:14:01,VALID,0,VALID,95.1211,VALID,-0.0509425,VALID,19.4277,VALID,67,VALID,1.26823,
2000-03-13, 03:15:00,VALID,0,VALID,95.1059,VALID,-0.0849042,VALID,19.4471,VALID,61,VALID,1.26912,
2000-03-13, 03:16:00,VALID,0,VALID,94.952,VALID,-0.0169808,VALID,19.4496,VALID,42,VALID,1.13598,
2000-03-13, 03:17:00,VALID,0,VALID,94.8426,VALID,-0.0509425,VALID,19.4786,VALID,79,VALID,0.913218,
2000-03-13, 03:18:00,VALID,0,VALID,94.7447,VALID,-0.0509425,VALID,19.4886,VALID,78,VALID,1.40781,
2000-03-13, 03:19:00,VALID,0,VALID,94.5819,VALID,-0.0679233,VALID,19.4955,VALID,73,VALID,1.30119,
2000-03-13, 03:20:00,VALID,0,VALID,94.5184,VALID,-0.0679233,VALID,19.505,VALID,85,VALID,1.05431,
2000-03-13, 03:21:00,VALID,0,VALID,94.5324,VALID,-0.0679233,VALID,19.5017,VALID,86,VALID,0.838616,
2000-03-13, 03:22:00,VALID,0,VALID,94.5145,VALID,-0.0509425,VALID,19.4953,VALID,64,VALID,0.736178,
2000-03-13, 03:23:00,VALID,0,VALID,94.5031,VALID,-0.0849042,VALID,19.4888,VALID,92,VALID,0.77935,
2000-03-13, 03:24:00,VALID,0,VALID,94.4395,VALID,-0.0339617,VALID,19.5017,VALID,66,VALID,0.850535,
2000-03-13, 03:25:01,VALID,0,VALID,94.3798,VALID,-0.0339617,VALID,19.498,VALID,70,VALID,1.23277,
2000-03-13, 03:26:00,VALID,0,VALID,94.3187,VALID,-0.0509425,VALID,19.501,VALID,73,VALID,0.955329,
2000-03-13, 03:27:00,VALID,0,VALID,94.3149,VALID,-0.0169808,VALID,19.4945,VALID,96,VALID,0.725195,
2000-03-13, 03:28:00,VALID,0,VALID,94.3581,VALID,-0.0679233,VALID,19.4789,VALID,92,VALID,0.856419,
2000-03-13, 03:29:00,VALID,0,VALID,94.4942,VALID,-0.0509425,VALID,19.4622,VALID,84,VALID,1.04848,
2000-03-13, 03:30:00,VALID,0,VALID,94.5858,VALID,-0.0339617,VALID,19.4531,VALID,86,VALID,1.2398,
2000-03-13, 03:31:00,VALID,0,VALID,94.7066,VALID,-0.0169808,VALID,19.4503,VALID,88,VALID,1.16797,
2000-03-13, 03:32:00,VALID,0,VALID,94.7663,VALID,-0.0849042,VALID,19.4302,VALID,86,VALID,1.3106,
2000-03-13, 03:33:00,VALID,0,VALID,94.8172,VALID,-0.0339617,VALID,19.4242,VALID,81,VALID,1.09375,
2000-03-13, 03:34:00,VALID,0,VALID,94.9405,VALID,-0.0509425,VALID,19.4081,VALID,73,VALID,1.05039,
2000-03-13, 03:35:00,VALID,0,VALID,95.0995,VALID,-0.0509425,VALID,19.3885,VALID,83,VALID,0.758224,
2000-03-13, 03:36:01,VALID,0,VALID,95.1605,VALID,-0.0339617,VALID,19.3815,VALID,87,VALID,1.10957,
2000-03-13, 03:37:00,VALID,0,VALID,95.2139,VALID,-0.0169808,VALID,19.3852,VALID,79,VALID,0.991071,
2000-03-13, 03:38:00,VALID,0,VALID,95.1999,VALID,-0.0679233,VALID,19.3887,VALID,73,VALID,0.833333,
2000-03-13, 03:39:00,VALID,0,VALID,95.2381,VALID,0,VALID,19.3919,VALID,102,VALID,1.00718,
2000-03-13, 03:40:00,VALID,0,VALID,95.2063,VALID,-0.0509425,VALID,19.3954,VALID,74,VALID,0.938939,
2000-03-13, 03:41:00,VALID,0,VALID,95.1885,VALID,-0.0509425,VALID,19.4014,VALID,94,VALID,0.925681,
2000-03-13, 03:42:00,VALID,0,VALID,95.2114,VALID,-0.0339617,VALID,19.4111,VALID,74,VALID,0.624399,
2000-03-13, 03:43:00,VALID,0,VALID,95.1491,VALID,-0.0509425,VALID,19.421,VALID,58,VALID,0.379883,
2000-03-13, 03:44:00,VALID,0,VALID,95.1236,VALID,-0.0339617,VALID,19.4242,VALID,80,VALID,0.438345,
2000-03-13, 03:45:00,VALID,0,VALID,95.1147,VALID,-0.101885,VALID,19.4245,VALID,82,VALID,0.386259,
2000-03-13, 03:46:00,VALID,0,VALID,95.0919,VALID,-0.0169808,VALID,19.4275,VALID,61,VALID,0.197917,
2000-03-13, 03:47:01,VALID,0,VALID,95.2495,VALID,-0.0509425,VALID,19.4434,VALID,60,VALID,0.804071,
2000-03-13, 03:48:00,VALID,0,VALID,95.0868,VALID,-0.0509425,VALID,19.4657,VALID,84,VALID,0.66913,
2000-03-13, 03:49:00,VALID,0,VALID,94.882,VALID,-0.0509425,VALID,19.4625,VALID,86,VALID,0.76478,
2000-03-13, 03:50:00,VALID,0,VALID,94.8973,VALID,-0.0509425,VALID,19.4468,VALID,84,VALID,0.781445,
2000-03-13, 03:51:00,VALID,0,VALID,94.8719,VALID,-0.0509425,VALID,19.4404,VALID,87,VALID,0.534128,
2000-03-13, 03:52:00,VALID,0,VALID,94.9863,VALID,-0.0339617,VALID,19.4143,VALID,82,VALID,0.584413,
2000-03-13, 03:53:00,VALID,0,VALID,95.1643,VALID,-0.0169808,VALID,19.3877,VALID,77,VALID,0.715179,
2000-03-13, 03:54:00,VALID,0,VALID,95.1504,VALID,-0.0679233,VALID,19.4044,VALID,89,VALID,1.13542,
2000-03-13, 03:55:00,VALID,0,VALID,95.0626,VALID,0,VALID,19.3914,VALID,82,VALID,0.923142,
2000-03-13, 03:56:00,VALID,0,VALID,95.0766,VALID,-0.0339617,VALID,19.3562,VALID,84,VALID,0.540707,
2000-03-13, 03:57:00,VALID,0,VALID,95.1936,VALID,-0.0679233,VALID,19.3403,VALID,89,VALID,0.505208,
2000-03-13, 03:58:00,VALID,0,VALID,95.3157,VALID,-0.0679233,VALID,19.3274,VALID,89,VALID,0.68129,
2000-03-13, 03:59:00,VALID,0,VALID,95.3881,VALID,-0.0509425,VALID,19.3179,VALID,86,VALID,0.527148,
2000-03-13, 04:00:00,VALID,0,VALID,95.5191,VALID,-0.0509425,VALID,19.304,VALID,82,VALID,0.559966,
2000-03-13, 04:01:00,VALID,0,VALID,95.6615,VALID,-0.0679233,VALID,19.2978,VALID,91,VALID,0.750689,
2000-03-13, 04:02:00,VALID,0,VALID,95.57,VALID,-0.0339617,VALID,19.3045,VALID,93,VALID,0.698568,
2000-03-13, 04:03:00,VALID,0,VALID,95.4822,VALID,-0.0169808,VALID,19.2918,VALID,94,VALID,0.645354,